TimeMST,TemperatureF,Dew PointF,Humidity,Sea Level PressureIn,VisibilityMPH,Wind Direction,Wind SpeedMPH,Gust SpeedMPH,PrecipitationIn,Events,Conditions,WindDirDegrees,DateUTC
1:53 AM,46.4,35.6,66,29.94,10.0,Calm,Calm,-,N/A,,Mostly Cloudy,0,2013-01-16 08:53:00
2:41 AM,46.4,37.4,71,29.94,10.0,North,6.9,-,N/A,,Mostly Cloudy,10,2013-01-16 09:41:00
3:43 AM,44.6,39.2,81,29.95,10.0,North,9.2,-,N/A,,Mostly Cloudy,360,2013-01-16 10:43:00
4:44 AM,44.6,39.2,81,29.95,10.0,NE,8.1,-,N/A,,Mostly Cloudy,50,2013-01-16 11:44:00
5:42 AM,44.6,39.2,81,29.93,10.0,Calm,Calm,-,N/A,,Scattered Clouds,0,2013-01-16 12:42:00
6:43 AM,44.6,41.0,87,29.94,12.0,NW,6.9,-,N/A,,Mostly Cloudy,320,2013-01-16 13:43:00
7:42 AM,46.4,42.8,87,29.96,12.0,Calm,Calm,-,N/A,,Mostly Cloudy,0,2013-01-16 14:42:00
8:46 AM,53.6,46.4,77,29.98,12.0,NW,6.9,-,N/A,,Mostly Cloudy,310,2013-01-16 15:46:00
9:46 AM,62.6,51.8,68,29.97,12.0,NNE,3.5,-,N/A,,Mostly Cloudy,20,2013-01-16 16:46:00
10:51 AM,69.8,51.8,53,29.95,12.0,SSW,6.9,-,N/A,,Mostly Cloudy,200,2013-01-16 17:51:00
11:47 AM,73.4,50.0,44,29.91,12.0,SSE,9.2,-,N/A,,Mostly Cloudy,160,2013-01-16 18:47:00
12:48 PM,73.4,50.0,44,29.88,12.0,SSW,10.4,-,N/A,,Mostly Cloudy,210,2013-01-16 19:48:00
1:44 PM,73.4,50.0,44,29.86,12.0,SW,11.5,-,N/A,,Mostly Cloudy,230,2013-01-16 20:44:00
2:43 PM,75.2,48.2,38,29.84,12.0,WSW,12.7,-,N/A,,Mostly Cloudy,250,2013-01-16 21:43:00
3:40 PM,73.4,48.2,41,29.84,12.0,WSW,11.5,-,N/A,,Mostly Cloudy,250,2013-01-16 22:40:00
4:51 PM,71.6,46.4,41,29.84,12.0,West,10.4,-,N/A,,Mostly Cloudy,260,2013-01-16 23:51:00
5:41 PM,66.2,48.2,52,29.87,12.0,WSW,10.4,-,N/A,,Mostly Cloudy,240,2013-01-17 00:41:00
6:41 PM,62.6,48.2,59,29.89,10.0,WNW,8.1,-,N/A,,Mostly Cloudy,290,2013-01-17 01:41:00
7:42 PM,57.2,46.4,67,30.14,10.0,West,8.1,-,N/A,,Mostly Cloudy,260,2013-01-17 02:42:00
8:40 PM,55.4,46.4,72,29.91,10.0,West,5.8,-,N/A,,Mostly Cloudy,280,2013-01-17 03:40:00
9:48 PM,51.8,42.8,71,29.91,10.0,NE,5.8,-,N/A,,Mostly Cloudy,50,2013-01-17 04:48:00
10:43 PM,48.2,42.8,82,29.92,10.0,NE,9.2,-,N/A,,Mostly Cloudy,50,2013-01-17 05:43:00
11:50 PM,48.2,44.6,87,29.92,10.0,East,8.1,-,N/A,,Scattered Clouds,100,2013-01-17 06:50:00